Temperature
13 13 14 14 14 14 14 14 14 14 14 14 14 15 15 15 15 15 15 15 15 16 16 16 16 16 16 16 16 16 16 16 16 16 16 16 16 16
13 13 13 14 14 14 14 14 14 14 14 14 14 14 15 15 15 15 15 15 15 15 15 15 15 16 16 16 16 16 16 16 16 16 16 16 16 16
14 14 13 13 13 14 14 14 14 14 14 14 14 14 14 14 15 15 15 15 15 15 15 15 15 15 15 15 15 15 15 15 16 16 16 16 16 16
14 14 13 13 13 13 14 14 14 14 14 14 14 14 14 14 14 14 14 15 15 15 15 15 15 15 15 15 15 15 15 15 15 15 15 15 15 15
14 14 14 13 14 13 13 13 14 13 13 14 14 14 14 14 14 14 14 14 14 14 14 15 15 15 15 15 15 15 15 15 15 15 15 15 15 15
14 14 14 14 14 13 13 13 13 13 13 13 14 14 14 14 14 14 14 14 14 14 14 14 14 14 14 14 15 15 15 15 15 15 15 15 15 15
14 14 14 13 13 13 13 13 13 13 13 13 13 14 14 13 14 14 14 14 14 14 14 14 14 14 14 14 14 14 14 15 15 15 15 15 15 14
13 13 13 13 13 13 13 13 13 13 13 13 13 13 14 14 13 13 13 13 13 14 14 14 14 14 14 14 14 14 14 14 14 14 14 14 14 14
13 13 13 13 13 13 13 13 13 13 13 13 13 13 13 13 13 13 13 13 13 14 14 14 14 14 14 14 14 14 14 14 14 14 14 14 14 14
13 12 12 12 12 12 13 13 13 13 13 13 13 13 13 13 13 13 13 13 13 13 13 13 13 13 14 13 13 13 13 13 13 13 13 13 13 13
12 12 12 12 12 12 12 12 12 12 12 12 12 12 12 12 12 12 12 12 13 13 13 13 13 13 13 13 13 13 13 13 13 13 13 13 13 13
12 12 12 11 11 11 11 11 11 12 12 12 12 12 12 12 12 12 12 12 12 12 13 13 13 12 12 13 13 13 13 13 12 12 12 12 12 12
11 11 11 11 11 11 11 11 11 11 11 11 11 12 12 12 12 12 12 12 12 12 12 12 12 12 12 12 12 12 12 12 12 12 12 12 12 12
11 11 11 11 11 11 11 11 11 11 11 11 11 11 11 11 12 12 12 12 12 12 12 12 12 12 12 12 12 12 12 12 12 12 12 12 12 11
10 10 10 10 10 10 10 10 10 10 10 10 10 11 11 11 11 11 11 11 11 11 11 11 12 12 12 12 12 12 12 12 12 12 11 11 11 11
10 10 10 10 10 10 10 10 10 10 10 10 10 10 10 10 10 11 11 11 11 11 11 11 11 11 11 11 12 12 12 11 11 11 11 11 11 11
9 9 9 9 9 9 9 10 10 9 9 9 9 9 10 10 10 10 10 10 10 11 11 11 11 11 11 11 11 11 11 11 11 11 11 11 10 10
9 9 9 9 9 9 9 9 9 9 9 9 9 9 9 9 9 10 10 10 10 10 10 11 11 10 10 10 11 11 11 11 11 11 11 10 10 10
8 8 8 8 8 8 8 8 8 8 8 8 8 8 9 9 9 9 9 9 9 10 10 10 10 10 10 10 10 10 10 10 10 10 10 10 10 10
8 8 8 8 8 8 8 8 8 8 8 8 8 8 8 8 8 8 8 9 9 9 9 10 10 10 10 10 10 10 10 10 10 10 10 9 9 9
7 7 7 7 7 7 7 7 7 7 7 7 7 8 8 8 8 8 8 8 8 8 9 9 10 9 9 9 9 9 10 9 9 9 9 9 9 8
7 7 7 7 7 7 7 7 7 7 7 7 7 7 7 7 7 7 8 8 8 8 8 8 9 8 8 8 9 9 9 9 8 8 8 8 8 8
6 6 6 6 6 6 6 6 6 6 6 6 6 7 7 7 7 7 7 7 7 8 8 8 8 8 8 8 8 8 8 8 8 8 7 7 7 7
Wind_Speed
1 1 1 1 0 1 2 3 3 1 2 3 2 2 2 3 4 5 5 8 10 10 11 11 11 11 11 11 11 12 12 12 12 13 13 13 13 12
1 1 1 1 1 1 1 2 3 3 2 3 2 3 2 2 4 4 5 7 9 10 11 11 11 11 11 10 11 11 11 11 12 12 13 13 13 12
2 1 2 2 1 1 1 1 2 3 3 3 2 2 2 2 1 2 4 5 6 9 10 10 11 11 11 10 10 11 11 11 11 12 13 13 13 13
3 2 3 2 2 2 1 1 2 2 3 3 2 2 2 3 2 2 2 4 6 9 10 11 11 12 12 12 11 11 11 12 12 12 12 12 13 13
2 2 3 2 2 2 2 2 2 2 2 3 3 2 2 2 1 1 2 1 4 7 10 11 12 12 12 13 13 13 13 13 13 13 12 12 13 12
2 2 2 2 3 3 2 3 3 2 2 2 2 2 2 2 1 1 2 2 2 3 5 7 10 12 13 13 14 14 14 14 14 13 13 13 12 12
3 3 3 3 3 2 2 2 2 2 2 2 3 2 2 2 2 2 2 2 2 2 2 2 3 4 7 11 13 14 14 14 14 14 13 13 12 12
4 4 4 4 5 5 4 3 2 3 4 3 3 4 5 4 3 3 2 2 3 2 3 3 3 4 4 7 10 13 14 14 14 13 13 13 12 12
3 4 4 4 4 4 5 5 5 6 5 4 5 6 6 5 4 4 4 4 5 3 3 3 3 4 4 7 10 12 12 13 13 13 13 13 12 12
3 4 4 5 5 4 4 4 5 5 7 6 5 7 7 6 6 6 6 4 3 2 4 4 3 3 3 4 9 11 12 12 12 12 12 12 12 11
4 4 4 5 7 6 3 5 6 6 7 8 9 9 10 10 7 3 3 3 4 3 3 4 3 2 2 3 6 10 12 12 12 12 12 12 12 10
4 5 6 7 8 6 4 5 7 7 6 6 6 7 7 7 9 7 6 5 3 4 4 4 3 3 2 2 2 5 7 9 11 12 12 12 12 8
4 5 5 10 10 9 7 5 9 8 6 5 5 5 5 5 5 6 7 7 6 6 5 5 4 3 3 2 2 3 4 4 6 7 10 12 12 10
5 5 6 11 11 11 8 9 11 8 4 4 5 6 6 6 6 6 7 8 8 7 6 6 5 5 5 3 3 2 3 3 4 4 5 8 9 9
6 9 11 12 11 9 10 12 9 5 4 5 7 8 7 7 5 5 5 5 5 6 6 6 5 5 5 5 4 4 3 3 4 4 4 5 5 5
6 9 11 11 9 9 9 8 6 6 6 7 7 7 5 5 6 5 5 4 4 4 3 5 6 7 5 4 5 5 5 5 4 4 4 3 3 5
6 4 4 4 5 5 6 6 5 5 6 6 7 7 6 6 6 5 5 4 6 6 4 2 1 3 4 5 4 5 5 4 5 5 5 4 3 4
5 4 6 6 6 7 7 7 6 6 7 7 7 7 7 8 7 5 5 6 7 6 6 4 3 2 1 1 2 6 5 5 5 5 4 5 4 3
4 6 6 7 7 7 7 7 7 7 6 7 7 7 7 7 7 6 6 6 6 7 6 5 5 5 6 6 3 3 6 5 5 5 4 4 5 5
5 6 7 7 7 7 7 7 7 6 6 7 7 7 7 7 7 7 7 7 7 6 6 5 7 8 9 7 5 3 4 5 6 6 4 2 2 2
6 7 7 7 7 7 7 7 7 7 7 7 7 8 7 7 8 8 8 10 9 7 8 9 9 8 3 4 3 2 1 2 6 6 6 4 3 3
7 7 7 8 8 8 7 7 8 8 8 8 7 7 7 7 9 9 9 8 8 8 8 6 5 6 4 6 6 5 3 2 3 6 6 6 6 7
7 7 7 7 7 7 7 8 9 8 8 7 7 7 7 7 7 7 8 8 8 8 6 5 5 5 5 5 5 4 5 5 3 3 1 3 3 6
Wind_Direction
321 337 330 295 265 199 175 163 158 202 294 291 298 294 285 257 242 219 220 218 215 213 211 210 207 205 201 200 200 199 199 198 198 200 200 198 197 199
300 328 323 297 297 272 198 176 167 174 225 267 268 285 286 266 238 218 225 223 219 218 213 210 207 205 202 200 198 197 197 197 198 201 202 201 201 203
319 311 296 289 294 294 268 200 183 172 211 272 278 298 290 277 286 243 233 224 225 221 215 214 209 205 202 202 201 197 198 200 203 207 208 206 206 207
301 312 300 295 286 280 257 245 230 203 196 245 281 292 269 256 250 248 241 228 225 224 219 218 215 211 207 206 206 203 202 203 205 206 209 210 210 212
278 273 285 290 283 277 257 248 245 232 204 215 256 267 274 272 269 269 253 257 235 229 224 224 220 216 214 213 211 208 207 207 207 207 211 215 213 214
292 271 271 250 249 257 259 254 247 242 231 226 249 264 268 277 235 247 269 259 248 234 224 222 223 222 220 219 215 212 211 211 210 210 210 211 211 210
316 297 281 279 268 252 254 248 235 238 239 234 246 257 260 259 241 233 237 259 261 229 216 222 215 219 223 223 220 217 214 213 211 211 211 209 207 205
305 303 297 291 295 286 279 261 225 221 229 229 238 238 245 237 233 226 221 223 257 229 191 231 200 219 221 219 219 214 212 209 208 208 207 203 200 199
291 297 306 310 304 292 292 288 269 254 228 218 231 240 239 229 218 227 222 218 232 220 180 231 216 223 224 220 212 207 206 205 204 202 199 197 196 198
296 281 281 291 297 289 280 286 280 273 255 238 235 247 246 236 219 222 224 230 250 241 184 219 224 225 225 216 211 206 205 205 204 202 199 197 195 196
306 300 290 284 298 300 281 277 283 284 276 261 254 255 256 247 226 213 213 210 245 244 202 198 214 218 229 232 218 209 207 206 204 203 201 197 194 191
304 301 295 296 300 298 278 268 274 279 285 289 278 273 265 257 236 220 215 215 223 239 212 190 196 181 222 241 217 205 205 208 207 206 201 196 188 179
295 294 293 300 299 293 280 258 264 274 270 261 267 270 268 263 252 236 224 218 219 232 210 182 192 187 194 213 220 205 196 197 199 202 199 194 188 180
272 274 280 291 293 295 287 276 279 283 268 258 258 258 256 255 254 244 234 228 227 229 211 188 193 191 186 197 215 207 196 193 184 185 183 185 184 185
267 275 282 286 290 290 284 282 282 267 259 260 255 253 249 248 248 248 240 234 238 240 226 208 199 192 188 196 194 190 192 200 189 181 181 182 182 175
284 287 289 285 280 278 286 284 267 253 250 254 261 259 253 247 243 236 232 225 235 252 245 218 206 192 194 196 187 193 187 185 182 181 175 178 176 180
289 292 293 293 287 283 281 277 269 265 259 252 256 261 258 250 247 236 225 219 226 231 233 238 207 182 182 179 187 195 186 182 176 171 172 183 195 188
290 282 282 278 275 276 276 277 271 265 261 258 255 255 256 251 248 239 226 221 228 230 221 205 183 172 162 322 208 187 184 185 177 172 168 176 197 200
275 272 274 274 274 272 269 267 269 266 262 257 255 255 255 254 248 242 232 231 232 227 219 199 193 195 207 220 228 206 186 178 169 173 179 178 190 195
266 269 271 272 272 271 270 269 270 271 266 265 261 256 252 251 247 242 234 230 233 231 220 207 204 206 213 212 196 205 194 179 175 178 172 145 119 119
269 269 270 271 271 269 269 268 267 267 266 262 263 259 255 253 247 242 237 231 228 229 228 223 217 198 169 134 150 185 205 185 174 171 163 152 152 165
272 271 273 273 272 270 270 269 269 267 266 262 260 259 256 256 251 245 241 236 230 227 233 230 183 170 180 194 198 189 174 136 109 132 149 167 170 184
276 277 276 277 275 273 273 273 272 271 267 264 262 258 255 253 255 249 243 241 234 226 219 213 196 189 194 193 186 180 172 165 152 131 67 25 175 191
Height
1516 1516 1515 1515 1515 1515 1515 1516 1516 1515 1515 1514 1514 1514 1515 1515 1516 1516 1517 1519 1520 1521 1523 1524 1526 1528 1529 1531 1533 1534 1536 1538 1540 1542 1544 1545 1547 1549
1516 1516 1515 1515 1515 1515 1515 1515 1515 1515 1514 1514 1514 1514 1514 1514 1514 1515 1516 1517 1518 1519 1520 1522 1524 1525 1527 1529 1530 1532 1534 1536 1537 1539 1541 1543 1545 1546
1516 1515 1515 1514 1514 1514 1514 1513 1513 1513 1513 1512 1513 1512 1513 1513 1513 1513 1514 1515 1516 1517 1518 1520 1521 1523 1525 1526 1528 1529 1531 1533 1534 1536 1538 1540 1541 1543
1515 1515 1514 1513 1513 1512 1512 1512 1512 1512 1512 1511 1511 1511 1511 1511 1511 1511 1512 1513 1514 1514 1516 1517 1519 1520 1522 1523 1525 1526 1528 1529 1531 1532 1534 1536 1538 1539
1514 1513 1513 1512 1511 1511 1511 1510 1510 1510 1510 1509 1509 1509 1509 1509 1509 1509 1510 1510 1511 1512 1513 1514 1516 1517 1518 1520 1521 1523 1524 1526 1527 1529 1530 1532 1534 1535
1513 1512 1511 1510 1510 1509 1509 1508 1508 1508 1508 1507 1507 1506 1507 1507 1507 1507 1507 1508 1509 1510 1510 1511 1512 1514 1515 1516 1517 1519 1520 1521 1523 1524 1526 1528 1529 1531
1511 1510 1510 1509 1508 1507 1507 1506 1506 1505 1505 1505 1504 1504 1504 1504 1504 1505 1505 1505 1506 1506 1507 1508 1509 1510 1511 1512 1513 1514 1516 1517 1518 1520 1521 1523 1524 1526
1509 1508 1507 1507 1506 1505 1504 1504 1503 1503 1502 1502 1501 1501 1501 1501 1502 1502 1502 1502 1502 1503 1503 1504 1505 1505 1506 1508 1508 1510 1511 1512 1514 1515 1516 1517 1519 1521
1506 1505 1504 1504 1503 1502 1501 1500 1500 1499 1499 1499 1498 1497 1498 1498 1498 1498 1498 1498 1498 1499 1499 1499 1500 1501 1502 1503 1504 1505 1506 1508 1509 1510 1511 1512 1514 1516
1504 1502 1501 1500 1499 1498 1497 1496 1496 1495 1495 1494 1494 1494 1494 1494 1494 1495 1494 1494 1494 1495 1495 1495 1495 1496 1497 1498 1499 1501 1502 1503 1504 1505 1506 1508 1509 1511
1501 1500 1498 1497 1496 1494 1493 1492 1491 1491 1490 1490 1489 1489 1489 1489 1489 1490 1490 1490 1489 1489 1490 1490 1490 1492 1492 1493 1495 1496 1497 1498 1499 1500 1502 1503 1505 1507
1497 1496 1495 1494 1492 1491 1489 1488 1486 1485 1485 1484 1484 1483 1483 1484 1484 1484 1484 1484 1484 1484 1485 1486 1486 1487 1488 1488 1489 1491 1492 1493 1495 1496 1498 1499 1501 1502
1493 1492 1491 1489 1488 1487 1485 1484 1482 1481 1480 1479 1478 1477 1477 1477 1477 1478 1478 1479 1478 1478 1480 1481 1481 1482 1483 1483 1484 1486 1487 1488 1490 1491 1493 1495 1496 1498
1489 1487 1486 1485 1483 1482 1480 1479 1477 1476 1475 1474 1472 1471 1471 1471 1471 1471 1472 1472 1472 1473 1474 1475 1475 1476 1477 1478 1479 1480 1482 1484 1485 1487 1488 1490 1492 1493
1484 1483 1481 1480 1478 1476 1475 1473 1472 1470 1469 1467 1466 1465 1464 1464 1465 1465 1465 1465 1465 1466 1467 1468 1469 1470 1472 1472 1474 1475 1477 1478 1480 1482 1484 1485 1487 1488
1479 1477 1476 1474 1472 1471 1469 1467 1466 1464 1463 1461 1460 1459 1458 1458 1458 1458 1458 1458 1458 1458 1460 1461 1462 1464 1465 1467 1468 1469 1471 1473 1475 1477 1479 1481 1482 1483
1473 1471 1469 1467 1465 1464 1462 1461 1459 1458 1456 1454 1453 1452 1451 1451 1450 1450 1451 1451 1451 1451 1452 1454 1456 1457 1459 1460 1462 1463 1465 1467 1469 1471 1473 1475 1477 1478
1468 1465 1463 1461 1459 1457 1456 1454 1452 1451 1449 1447 1446 1445 1444 1443 1443 1443 1443 1443 1443 1444 1445 1446 1448 1450 1452 1453 1455 1457 1459 1461 1463 1466 1467 1469 1470 1473
1461 1459 1457 1455 1453 1451 1449 1447 1445 1444 1442 1441 1439 1438 1437 1436 1436 1435 1435 1435 1436 1437 1438 1439 1441 1443 1444 1445 1447 1450 1453 1455 1457 1460 1462 1463 1465 1467
1455 1452 1450 1448 1446 1444 1442 1440 1438 1437 1435 1434 1432 1431 1430 1429 1429 1428 1428 1428 1428 1429 1430 1432 1433 1435 1436 1438 1440 1443 1446 1449 1451 1453 1456 1458 1460 1462
1448 1445 1443 1441 1439 1437 1435 1433 1431 1429 1427 1426 1424 1423 1422 1422 1421 1421 1420 1421 1421 1422 1422 1423 1425 1429 1431 1434 1435 1436 1439 1442 1445 1447 1450 1452 1454 1456
1441 1438 1436 1434 1432 1429 1427 1425 1423 1421 1419 1418 1417 1415 1414 1414 1413 1413 1412 1413 1413 1414 1415 1417 1419 1421 1424 1425 1427 1430 1433 1436 1438 1441 1444 1447 1447 1449
1434 1431 1429 1426 1424 1422 1419 1417 1415 1413 1411 1410 1408 1407 1406 1405 1405 1404 1404 1405 1405 1406 1407 1409 1411 1413 1415 1418 1421 1424 1427 1429 1432 1435 1438 1440 1443 1445